Home   Weather   Redmond   Past weeks

Flag for USA Past Weather in Redmond, Washington, USA — Yesterday and Last 2 Weeks

Now
35 °F

Light rain. Fog.


Feels Like: 30 °F
Forecast: 32 / 43 °F
Wind: 6 mph from Southeast

Location: Seattle Boeing Field

Current Time: Feb 27, 2017 at 9:31:12 pm

Latest Report: Feb 27, 2017 at 8:53 pm


Visibility: 5 mi

Pressure: 29.76 "Hg

Humidity: 100%

Dew Point: 35 °F

Location of RedmondLocation

Past Weather in Redmond — Graph

°F

Redmond Temperature Yesterday

Maximum temperature yesterday: 42 °F (at 1:53 pm)
Minimum temperature yesterday: 36 °F (at 3:53 am)
Average temperature yesterday: 39 °F

High & Low Weather Summary for the Past Weeks

 TemperatureHumidityPressure
High59 °F (Feb 14, 2:53 pm)100% (Feb 13, 3:53 am)30.38 "Hg (Feb 13, 3:53 am)
Low31 °F (Feb 25, 4:53 am)41% (Feb 14, 3:53 pm)29.39 "Hg (Feb 19, 5:53 am)
Average43 °F88%29.86 "Hg
* Reported Feb 12 8:53 pm — Feb 27 8:18 pm, Redmond, Weather by CustomWeather, © 2017

Note: Actual official high and low records may vary slightly from our data, if they occured in-between our weather recording intervals... More about our weather records

Advertising

Redmond Weather History for the Previous 24 Hours

Scroll right to see more
 ConditionsComfort  
Time TempWeatherWind HumidityBarometerVisibility
8:18 pm
Mon, Feb 27
35 °FFog.6 mph100%29.77 "Hg5 mi
7:53 pm36 °FLight rain. Fog.3 mph100%29.75 "Hg10 mi
6:53 pm35 °FLight rain. Fog.No wind100%29.74 "Hg6 mi
5:53 pm34 °FHail. Mostly cloudy.5 mph100%29.72 "Hg6 mi
4:53 pm34 °FFog.5 mph100%29.71 "Hg6 mi
3:53 pm36 °FSnow. Fog.13 mph97%29.68 "Hg1 mi
2:53 pm42 °FMostly cloudy.7 mph82%29.67 "Hg10 mi
1:53 pm42 °FCloudy.9 mph82%29.67 "Hg10 mi
12:53 pm41 °FMostly cloudy.13 mph86%29.68 "Hg10 mi
11:53 am41 °FMostly cloudy.12 mph89%29.70 "Hg10 mi
10:53 am38 °FLight rain. Mostly cloudy.7 mph97%29.72 "Hg7 mi
10:30 am38 °FLight rain. Fog.7 mph97%29.73 "Hg5 mi
8:53 am36 °FLight rain. Fog.9 mph100%29.74 "Hg4 mi
7:53 am35 °FFog.6 mph100%29.75 "Hg5 mi
7:22 am34 °FLight rain. Fog.8 mph100%29.75 "Hg4 mi
6:43 am33 °FLight snow. Fog.3 mph100%29.76 "Hg1 mi
6:05 am35 °FRain. Fog.6 mph100%29.76 "Hg6 mi
4:53 am35 °FLight rain. Fog.5 mph100%29.76 "Hg4 mi
3:53 am36 °FLight rain. Fog.No wind97%29.77 "Hg6 mi
2:53 am37 °FLight rain. Overcast.7 mph100%29.77 "Hg10 mi
1:53 am37 °FOvercast.6 mph100%29.77 "Hg10 mi
12:53 am37 °FOvercast.9 mph100%29.77 "Hg10 mi
11:53 pm
Sun, Feb 26
38 °FOvercast.6 mph100%29.76 "Hg10 mi
10:53 pm41 °FOvercast.3 mph60%29.76 "Hg10 mi
9:53 pm41 °FOvercast.No wind70%29.76 "Hg10 mi
Weather by CustomWeather, © 2017

See weather overviewHow to use our weather pages